This demonstration page uses our WeatherBlox Daily Observations layout. Learn more.

Hourly Observations for July 17, 2017

Temp ( °F °C ) Dew Point ( °F °C ) Humidity (%) Winds ( mph kmh ) Pressure ( in mb ) Visibility ( mi km ) Precip ( " mm )
12:15 am 00:15 Partly Cloudy 73 23 72 22 94 94 Calm 30 1016 10 16.09344 0 0
12:35 am 00:35 Partly Cloudy 73 23 72 22 94 94 Calm 30 1016 10 16.09344 0 0
12:55 am 00:55 Clear 73 23 72 22 94 94 Calm 30 1016 10 16.09344 0 0
1:15 am 01:15 Clear 73 23 72 22 94 94 Calm 30 1016 10 16.09344 0 0
1:35 am 01:35 Clear 73 23 72 22 94 94 Calm 30 1016 10 16.09344 0 0
1:55 am 01:55 Partly Cloudy 73 23 72 22 94 94 Calm 30 1016 10 16.09344 0 0
2:15 am 02:15 Mostly Cloudy 73 23 72 22 94 94 Calm 30 1016 10 16.09344 0 0
2:35 am 02:35 Partly Cloudy 73 23 72 22 94 94 Calm 30 1016 10 16.09344 0 0
2:55 am 02:55 Partly Cloudy 73 23 72 22 94 94 SE 5 7 30 1016 10 16.09344 0 0
3:15 am 03:15 Clear 75 24 72 22 89 89 S 3 6 30 1016 10 16.09344 0 0
3:35 am 03:35 Partly Cloudy 72 22 70 21 94 94 Calm 30 1016 10 16.09344 0 0
3:55 am 03:55 Cloudy 72 22 72 22 100 100 Calm 30 1016 10 16.09344 0 0
4:15 am 04:15 Cloudy 73 23 72 22 94 94 Calm 30 1016 10 16.09344 0 0
4:35 am 04:35 Mostly Cloudy 73 23 72 22 94 94 Calm 30 1016 10 16.09344 0 0
4:55 am 04:55 Partly Cloudy 73 23 72 22 94 94 SSE 3 6 30 1016 10 16.09344 0 0
5:15 am 05:15 Clear 73 23 72 22 94 94 SSE 3 6 30 1016 10 16.09344 0 0
5:35 am 05:35 Clear 72 22 72 22 100 100 SSE 3 6 30 1016 10 16.09344 0 0
5:55 am 05:55 Clear 72 22 72 22 100 100 NNW 3 6 30 1016 10 16.09344 0 0
6:15 am 06:15 Sunny 72 22 72 22 100 100 Calm 30 1016 10 16.09344 0 0
6:35 am 06:35 Sunny 72 22 72 22 100 100 Calm 30 1016 10 16.09344 0 0
6:55 am 06:55 Sunny 72 22 72 22 100 100 Calm 30.03 1017 10 16.09344 0 0
7:15 am 07:15 Sunny 73 23 72 22 94 94 Calm 30.03 1017 10 16.09344 0 0
7:35 am 07:35 Sunny 73 23 73 23 100 100 Calm 30.03 1017 10 16.09344 0 0
7:55 am 07:55 Partly Cloudy 75 24 73 23 94 94 Calm 30.03 1017 10 16.09344 0 0
8:15 am 08:15 Cloudy 77 25 73 23 89 89 Calm 30.03 1017 10 16.09344 0 0
8:35 am 08:35 Mostly Cloudy 79 26 73 23 84 84 Calm 30.03 1017 10 16.09344 0 0
8:55 am 08:55 Mostly Cloudy 79 26 73 23 84 84 Calm 30.03 1017 10 16.09344 0 0
9:15 am 09:15 Mostly Cloudy 79 26 73 23 84 84 Calm 30.03 1017 10 16.09344 0 0
9:35 am 09:35 Mostly Cloudy 81 27 75 24 84 84 Calm 30.03 1017 10 16.09344 0 0
9:55 am 09:55 Partly Cloudy 82 28 75 24 79 79 S 3 6 30.03 1017 10 16.09344 0 0
10:15 am 10:15 Partly Cloudy 84 29 75 24 74 74 Calm 30.03 1017 10 16.09344 0 0
10:35 am 10:35 Cloudy 82 28 75 24 79 79 SSW 3 6 30.03 1017 10 16.09344 0 0
10:55 am 10:55 Partly Cloudy 84 29 77 25 79 79 Calm 30.03 1017 10 16.09344 0 0
11:15 am 11:15 Sunny 86 30 75 24 70 70 SSE 3 6 30.03 1017 10 16.09344 0 0
11:35 am 11:35 Sunny with Nearby Thunderstorms 86 30 73 23 66 66 S 5 7 30.03 1017 10 16.09344 0 0
11:55 am 11:55 Sunny 88 31 72 22 59 59 SSW 6 9 30 1016 10 16.09344 0 0
12:15 pm 12:15 Sunny 90 32 73 23 59 59 SW 6 9 30 1016 10 16.09344 0 0
12:55 pm 12:55 Partly Cloudy 90 32 72 22 55 55 SSW 5 7 30 1016 10 16.09344 0 0
1:15 pm 13:15 Partly Cloudy 91 33 72 22 52 52 SW 3 6 29.97 1015 10 16.09344 0 0
1:35 pm 13:35 Mostly Cloudy 90 32 72 22 55 55 SW 5 7 29.97 1015 10 16.09344 0 0
1:55 pm 13:55 Mostly Cloudy 91 33 72 22 52 52 S 8 13 29.97 1015 10 16.09344 0 0
2:15 pm 14:15 Mostly Cloudy 90 32 72 22 55 55 S 12 19 29.97 1015 10 16.09344 0 0
2:35 pm 14:35 Partly Cloudy 91 33 72 22 52 52 SSW 12 19 29.97 1015 10 16.09344 0 0
2:55 pm 14:55 Sunny 91 33 73 23 56 56 SSW 6 9 29.97 1015 10 16.09344 0 0
3:15 pm 15:15 Partly Cloudy 91 33 72 22 52 52 WSW 10 17 29.97 1015 10 16.09344 0 0
3:35 pm 15:35 Sunny 91 33 70 21 49 49 S 10 17 29.97 1015 10 16.09344 0 0
3:55 pm 15:55 Sunny 91 33 72 22 52 52 S 7 11 29.97 1015 10 16.09344 0 0
4:15 pm 16:15 Partly Cloudy 90 32 70 21 52 52 S 8 13 29.97 1015 10 16.09344 0 0
4:35 pm 16:35 Partly Cloudy 91 33 70 21 49 49 Calm 29.97 1015 10 16.09344 0 0
4:55 pm 16:55 Partly Cloudy with Nearby Thunderstorms 82 28 72 22 70 70 E 8 13 30 1016 10 16.09344 0 0
5:15 pm 17:15 Partly Cloudy with Nearby Thunderstorms 84 29 70 21 62 62 ESE 12 19 30 1016 10 16.09344 0 0
5:35 pm 17:35 Sunny 86 30 72 22 62 62 ESE 7 11 30 1016 10 16.09344 0 0
5:55 pm 17:55 Sunny 86 30 72 22 62 62 ESE 10 17 30 1016 10 16.09344 0 0
6:15 pm 18:15 Sunny 86 30 72 22 62 62 ESE 9 15 30 1016 10 16.09344 0 0
6:35 pm 18:35 Sunny 86 30 72 22 62 62 E 10 17 30.03 1017 10 16.09344 0 0
6:55 pm 18:55 Sunny 82 28 72 22 70 70 ESE 5 7 30.03 1017 10 16.09344 0 0
7:15 pm 19:15 Sunny 82 28 73 23 74 74 Calm 30.03 1017 10 16.09344 0 0
7:35 pm 19:35 Sunny 82 28 72 22 70 70 E 3 6 30 1016 10 16.09344 0 0
7:55 pm 19:55 Sunny 81 27 73 23 79 79 Calm 30 1016 10 16.09344 0 0
8:15 pm 20:15 Partly Cloudy 81 27 73 23 79 79 ENE 8 13 30.03 1017 10 16.09344 0 0
8:35 pm 20:35 Clear 79 26 72 22 79 79 NE 7 11 30.03 1017 10 16.09344 0 0
8:55 pm 20:55 Clear 79 26 72 22 79 79 ENE 5 7 30.06 1018 10 16.09344 0 0
9:15 pm 21:15 Clear 79 26 72 22 79 79 Calm 30.06 1018 10 16.09344 0 0
9:35 pm 21:35 Clear 79 26 72 22 79 79 ENE 5 7 30.06 1018 10 16.09344 0 0
9:55 pm 21:55 Clear 79 26 72 22 79 79 ENE 3 6 30.06 1018 10 16.09344 0 0
10:15 pm 22:15 Clear 77 25 72 22 83 83 ENE 5 7 30.06 1018 10 16.09344 0 0
10:35 pm 22:35 Clear 77 25 72 22 83 83 NE 3 6 30.06 1018 10 16.09344 0 0
10:55 pm 22:55 Clear 77 25 72 22 83 83 Calm 30.06 1018 10 16.09344 0 0
11:15 pm 23:15 Clear 75 24 72 22 89 89 Calm 30.06 1018 10 16.09344 0 0
11:35 pm 23:35 Clear 75 24 72 22 89 89 NNW 3 6 30.06 1018 10 16.09344 0 0
11:55 pm 23:55 Clear 73 23 72 22 94 94 Calm 30.06 1018 10 16.09344 0 0

Powered by AerisWeather